Time,TemperatureF,DewpointF,PressureIn,WindDirection,WindDirectionDegrees,WindSpeedMPH,WindSpeedGustMPH,Humidity,HourlyPrecipIn,Conditions,Clouds,dailyrainin,SoftwareType,DateUTC
2013-08-20 00:05:00,84.0,84.0,29.92,East,85,7.0,7.0,100,0.00,,,0.00,Wunderground v.1.15,2013-08-20 04:05:00,
2013-08-20 00:10:00,84.1,84.1,29.92,ENE,61,6.0,6.0,100,0.00,,,0.00,Wunderground v.1.15,2013-08-20 04:10:00,
2013-08-20 00:15:00,84.0,84.0,29.92,ENE,62,5.0,6.0,100,0.00,,,0.00,Wunderground v.1.15,2013-08-20 04:15:00,
2013-08-20 00:20:00,83.6,83.6,29.92,ENE,78,5.0,8.0,100,0.00,,,0.00,Wunderground v.1.15,2013-08-20 04:20:00,
2013-08-20 00:25:00,83.4,83.4,29.92,NNE,32,4.0,8.0,100,0.00,,,0.00,Wunderground v.1.15,2013-08-20 04:25:00,
2013-08-20 00:30:00,83.2,83.2,29.92,ENE,66,3.0,3.0,100,0.00,,,0.00,Wunderground v.1.15,2013-08-20 04:30:00,
2013-08-20 00:40:00,83.0,83.0,29.92,NE,41,2.0,5.0,100,0.00,,,0.00,Wunderground v.1.15,2013-08-20 04:40:00,
2013-08-20 00:50:00,83.0,83.0,29.92,ENE,58,6.0,6.0,100,0.00,,,0.00,Wunderground v.1.15,2013-08-20 04:50:00,
2013-08-20 00:55:00,83.2,83.2,29.92,NE,51,6.0,8.0,100,0.00,,,0.00,Wunderground v.1.15,2013-08-20 04:55:00,
2013-08-20 01:05:00,83.0,83.0,29.91,NE,45,4.0,6.0,100,0.00,,,0.00,Wunderground v.1.15,2013-08-20 05:05:00,
2013-08-20 01:10:00,83.2,83.2,29.91,ENE,71,5.0,6.0,100,0.00,,,0.00,Wunderground v.1.15,2013-08-20 05:10:00,
2013-08-20 01:15:00,83.4,83.4,29.91,East,85,5.0,6.0,100,0.00,,,0.00,Wunderground v.1.15,2013-08-20 05:15:00,
2013-08-20 01:20:00,83.4,83.4,29.91,ENE,62,5.0,7.0,100,0.00,,,0.00,Wunderground v.1.15,2013-08-20 05:20:00,
2013-08-20 01:30:00,83.8,83.8,29.91,East,83,9.0,9.0,100,0.00,,,0.00,Wunderground v.1.15,2013-08-20 05:30:00,
2013-08-20 01:40:00,83.6,83.6,29.91,NE,49,5.0,5.0,100,0.00,,,0.00,Wunderground v.1.15,2013-08-20 05:40:00,
2013-08-20 01:55:00,83.4,83.4,29.91,ENE,59,4.0,5.0,100,0.00,,,0.00,Wunderground v.1.15,2013-08-20 05:55:00,
2013-08-20 02:00:00,83.4,83.4,29.90,NE,56,5.0,6.0,100,0.00,,,0.00,Wunderground v.1.15,2013-08-20 06:00:00,
2013-08-20 02:10:00,83.6,83.6,29.90,NE,45,5.0,5.0,100,0.00,,,0.00,Wunderground v.1.15,2013-08-20 06:10:00,
2013-08-20 02:15:00,83.4,83.4,29.90,East,99,7.0,12.0,100,0.00,,,0.00,Wunderground v.1.15,2013-08-20 06:15:00,
2013-08-20 02:25:00,82.6,82.6,29.90,NE,54,7.0,8.0,100,0.00,,,0.00,Wunderground v.1.15,2013-08-20 06:25:00,
2013-08-20 02:35:00,82.2,82.2,29.90,East,96,6.0,7.0,100,0.00,,,0.00,Wunderground v.1.15,2013-08-20 06:35:00,
2013-08-20 02:40:00,82.2,82.2,29.90,NE,54,7.0,10.0,100,0.00,,,0.00,Wunderground v.1.15,2013-08-20 06:40:00,
2013-08-20 02:50:00,82.2,82.2,29.89,East,90,6.0,6.0,100,0.00,,,0.00,Wunderground v.1.15,2013-08-20 06:50:00,
2013-08-20 02:55:00,82.6,82.6,29.89,ESE,110,6.0,8.0,100,0.00,,,0.00,Wunderground v.1.15,2013-08-20 06:55:00,
2013-08-20 03:05:00,82.4,82.4,29.88,East,96,6.0,7.0,100,0.00,,,0.00,Wunderground v.1.15,2013-08-20 07:05:00,
2013-08-20 03:10:00,82.6,82.6,29.88,ENE,76,4.0,6.0,100,0.00,,,0.00,Wunderground v.1.15,2013-08-20 07:10:00,
2013-08-20 03:20:00,82.6,82.6,29.87,East,93,6.0,6.0,100,0.00,,,0.00,Wunderground v.1.15,2013-08-20 07:20:00,
2013-08-20 03:25:00,82.6,82.6,29.87,East,83,6.0,6.0,100,0.00,,,0.00,Wunderground v.1.15,2013-08-20 07:25:00,
2013-08-20 03:35:00,82.2,82.2,29.87,East,92,5.0,6.0,100,0.00,,,0.00,Wunderground v.1.15,2013-08-20 07:35:00,
2013-08-20 03:45:00,82.4,82.4,29.87,ESE,109,3.0,7.0,100,0.00,,,0.00,Wunderground v.1.15,2013-08-20 07:45:00,
2013-08-20 03:50:00,82.4,82.4,29.87,East,90,3.0,3.0,100,0.00,,,0.00,Wunderground v.1.15,2013-08-20 07:50:00,
2013-08-20 04:00:00,82.6,82.6,29.87,East,89,3.0,6.0,100,0.00,,,0.00,Wunderground v.1.15,2013-08-20 08:00:00,
2013-08-20 04:05:00,82.8,82.8,29.87,East,80,5.0,6.0,100,0.00,,,0.00,Wunderground v.1.15,2013-08-20 08:05:00,
2013-08-20 04:15:00,82.6,82.6,29.87,East,96,5.0,9.0,100,0.00,,,0.00,Wunderground v.1.15,2013-08-20 08:15:00,
2013-08-20 04:25:00,82.6,82.6,29.87,East,89,2.0,6.0,100,0.00,,,0.00,Wunderground v.1.15,2013-08-20 08:25:00,
2013-08-20 04:30:00,82.6,82.6,29.87,ENE,64,2.0,6.0,100,0.00,,,0.00,Wunderground v.1.15,2013-08-20 08:30:00,
2013-08-20 04:40:00,82.6,82.6,29.87,NE,56,4.0,6.0,100,0.00,,,0.00,Wunderground v.1.15,2013-08-20 08:40:00,
2013-08-20 04:45:00,82.6,82.6,29.88,NE,52,5.0,9.0,100,0.00,,,0.00,Wunderground v.1.15,2013-08-20 08:45:00,
2013-08-20 04:55:00,82.8,82.8,29.88,NE,54,4.0,8.0,100,0.00,,,0.00,Wunderground v.1.15,2013-08-20 08:55:00,
2013-08-20 05:05:00,83.0,83.0,29.88,East,99,5.0,7.0,100,0.00,,,0.00,Wunderground v.1.15,2013-08-20 09:05:00,
2013-08-20 05:10:00,82.8,82.8,29.88,East,93,5.0,5.0,100,0.00,,,0.00,Wunderground v.1.15,2013-08-20 09:10:00,
2013-08-20 05:20:00,82.8,82.8,29.88,ESE,103,4.0,7.0,100,0.00,,,0.00,Wunderground v.1.15,2013-08-20 09:20:00,
2013-08-20 05:30:00,83.0,83.0,29.88,East,90,4.0,4.0,100,0.00,,,0.00,Wunderground v.1.15,2013-08-20 09:30:00,
2013-08-20 05:35:00,83.0,83.0,29.88,East,79,3.0,5.0,100,0.00,,,0.00,Wunderground v.1.15,2013-08-20 09:35:00,
2013-08-20 05:45:00,83.0,83.0,29.88,ESE,113,4.0,5.0,100,0.00,,,0.00,Wunderground v.1.15,2013-08-20 09:45:00,
2013-08-20 05:50:00,83.0,83.0,29.88,SE,124,3.0,7.0,100,0.00,,,0.00,Wunderground v.1.15,2013-08-20 09:50:00,
2013-08-20 06:00:00,82.8,82.8,29.88,East,86,4.0,4.0,100,0.00,,,0.00,Wunderground v.1.15,2013-08-20 10:00:00,
2013-08-20 06:05:00,82.8,82.8,29.88,East,82,5.0,6.0,100,0.00,,,0.00,Wunderground v.1.15,2013-08-20 10:05:00,
2013-08-20 06:15:00,82.8,82.8,29.88,ESE,104,4.0,4.0,100,0.00,,,0.00,Wunderground v.1.15,2013-08-20 10:15:00,
2013-08-20 06:20:00,82.8,82.8,29.88,East,100,5.0,5.0,100,0.00,,,0.00,Wunderground v.1.15,2013-08-20 10:20:00,
2013-08-20 06:30:00,82.8,82.8,29.89,ENE,73,4.0,4.0,100,0.00,,,0.00,Wunderground v.1.15,2013-08-20 10:30:00,
2013-08-20 06:40:00,82.8,82.8,29.89,ESE,112,5.0,5.0,100,0.00,,,0.00,Wunderground v.1.15,2013-08-20 10:40:00,
2013-08-20 06:50:00,82.8,82.8,29.89,ENE,78,2.0,2.0,100,0.00,,,0.00,Wunderground v.1.15,2013-08-20 10:50:00,
2013-08-20 06:55:00,82.8,82.8,29.89,ENE,71,3.0,3.0,100,0.00,,,0.00,Wunderground v.1.15,2013-08-20 10:55:00,
2013-08-20 07:05:00,83.0,83.0,29.89,East,80,3.0,4.0,100,0.00,,,0.00,Wunderground v.1.15,2013-08-20 11:05:00,
2013-08-20 07:10:00,83.0,83.0,29.89,East,100,4.0,4.0,100,0.00,,,0.00,Wunderground v.1.15,2013-08-20 11:10:00,
2013-08-20 07:20:00,83.0,83.0,29.89,ENE,64,5.0,8.0,100,0.00,,,0.00,Wunderground v.1.15,2013-08-20 11:20:00,
2013-08-20 07:30:00,83.0,83.0,29.89,East,80,4.0,4.0,100,0.00,,,0.00,Wunderground v.1.15,2013-08-20 11:30:00,
2013-08-20 07:35:00,83.0,83.0,29.89,East,83,4.0,7.0,100,0.00,,,0.00,Wunderground v.1.15,2013-08-20 11:35:00,
2013-08-20 07:45:00,83.0,83.0,29.90,ESE,113,7.0,7.0,100,0.00,,,0.00,Wunderground v.1.15,2013-08-20 11:45:00,
2013-08-20 07:55:00,83.0,83.0,29.90,ENE,75,5.0,6.0,100,0.00,,,0.00,Wunderground v.1.15,2013-08-20 11:55:00,
2013-08-20 08:00:00,83.0,83.0,29.89,ENE,61,5.0,10.0,100,0.00,,,0.00,Wunderground v.1.15,2013-08-20 12:00:00,
2013-08-20 08:10:00,83.2,83.2,29.89,ENE,65,7.0,7.0,100,0.00,,,0.00,Wunderground v.1.15,2013-08-20 12:10:00,
2013-08-20 08:20:00,83.2,83.2,29.89,East,79,9.0,11.0,100,0.00,,,0.00,Wunderground v.1.15,2013-08-20 12:20:00,
2013-08-20 08:25:00,83.2,83.2,29.89,ENE,75,9.0,11.0,100,0.00,,,0.00,Wunderground v.1.15,2013-08-20 12:25:00,
2013-08-20 08:35:00,83.4,83.4,29.89,NE,48,10.0,12.0,100,0.00,,,0.00,Wunderground v.1.15,2013-08-20 12:35:00,
2013-08-20 08:40:00,83.2,83.2,29.89,NE,56,9.0,13.0,100,0.00,,,0.00,Wunderground v.1.15,2013-08-20 12:40:00,
2013-08-20 08:50:00,83.8,83.8,29.90,ENE,68,7.0,8.0,100,0.00,,,0.00,Wunderground v.1.15,2013-08-20 12:50:00,
2013-08-20 08:55:00,83.6,83.6,29.90,East,83,7.0,8.0,100,0.00,,,0.00,Wunderground v.1.15,2013-08-20 12:55:00,
2013-08-20 09:05:00,83.8,83.8,29.91,NE,54,6.0,7.0,100,0.00,,,0.00,Wunderground v.1.15,2013-08-20 13:05:00,
2013-08-20 09:10:00,84.0,84.0,29.91,ENE,72,7.0,7.0,100,0.00,,,0.00,Wunderground v.1.15,2013-08-20 13:10:00,
2013-08-20 09:20:00,84.5,84.5,29.91,East,79,6.0,6.0,100,0.00,,,0.00,Wunderground v.1.15,2013-08-20 13:20:00,
2013-08-20 09:30:00,84.5,84.5,29.91,NE,47,6.0,9.0,100,0.00,,,0.00,Wunderground v.1.15,2013-08-20 13:30:00,
2013-08-20 09:35:00,84.3,84.3,29.91,ENE,73,7.0,9.0,100,0.00,,,0.00,Wunderground v.1.15,2013-08-20 13:35:00,
2013-08-20 09:45:00,84.5,84.5,29.91,ENE,68,6.0,9.0,100,0.00,,,0.00,Wunderground v.1.15,2013-08-20 13:45:00,
2013-08-20 09:55:00,84.5,84.5,29.91,East,96,6.0,6.0,100,0.00,,,0.00,Wunderground v.1.15,2013-08-20 13:55:00,
2013-08-20 10:00:00,84.7,84.7,29.91,East,97,5.0,5.0,100,0.00,,,0.00,Wunderground v.1.15,2013-08-20 14:00:00,
2013-08-20 10:10:00,85.5,85.5,29.91,ENE,71,6.0,8.0,100,0.00,,,0.00,Wunderground v.1.15,2013-08-20 14:10:00,
2013-08-20 10:15:00,85.7,85.7,29.92,ESE,107,6.0,8.0,100,0.00,,,0.00,Wunderground v.1.15,2013-08-20 14:15:00,
2013-08-20 10:25:00,85.9,85.9,29.92,ENE,58,6.0,6.0,100,0.00,,,0.00,Wunderground v.1.15,2013-08-20 14:25:00,
2013-08-20 10:30:00,85.5,85.5,29.93,ESE,110,6.0,7.0,100,0.00,,,0.00,Wunderground v.1.15,2013-08-20 14:30:00,
2013-08-20 10:40:00,85.5,85.5,29.93,East,88,6.0,6.0,100,0.00,,,0.00,Wunderground v.1.15,2013-08-20 14:40:00,
2013-08-20 10:50:00,85.7,85.7,29.93,East,90,5.0,6.0,100,0.00,,,0.00,Wunderground v.1.15,2013-08-20 14:50:00,
2013-08-20 10:55:00,85.5,85.5,29.93,SE,124,5.0,8.0,100,0.00,,,0.00,Wunderground v.1.15,2013-08-20 14:55:00,
2013-08-20 11:05:00,84.1,84.1,29.92,ENE,71,7.0,7.0,100,0.00,,,0.00,Wunderground v.1.15,2013-08-20 15:05:00,
2013-08-20 11:15:00,85.7,85.7,29.94,East,89,5.0,11.0,100,0.00,,,0.00,Wunderground v.1.15,2013-08-20 15:15:00,
2013-08-20 11:25:00,85.9,85.9,29.94,ENE,68,6.0,7.0,100,0.00,,,0.00,Wunderground v.1.15,2013-08-20 15:25:00,
2013-08-20 11:30:00,86.5,86.5,29.93,ENE,76,7.0,11.0,100,0.00,,,0.00,Wunderground v.1.15,2013-08-20 15:30:00,
2013-08-20 11:35:00,86.3,86.3,29.93,ESE,110,8.0,11.0,100,0.00,,,0.00,Wunderground v.1.15,2013-08-20 15:35:00,
2013-08-20 11:45:00,86.1,86.1,29.93,ESE,120,8.0,12.0,100,0.00,,,0.00,Wunderground v.1.15,2013-08-20 15:45:00,
2013-08-20 11:55:00,85.9,85.9,29.93,ENE,71,7.0,11.0,100,0.00,,,0.00,Wunderground v.1.15,2013-08-20 15:55:00,
2013-08-20 12:00:00,86.1,86.1,29.94,East,80,8.0,8.0,100,0.00,,,0.00,Wunderground v.1.15,2013-08-20 16:00:00,
2013-08-20 12:10:00,86.5,86.5,29.94,ESE,109,7.0,7.0,100,0.00,,,0.00,Wunderground v.1.15,2013-08-20 16:10:00,
2013-08-20 12:20:00,86.5,86.5,29.94,ENE,58,6.0,6.0,100,0.00,,,0.00,Wunderground v.1.15,2013-08-20 16:20:00,
2013-08-20 12:25:00,86.3,86.3,29.94,East,83,7.0,7.0,100,0.00,,,0.00,Wunderground v.1.15,2013-08-20 16:25:00,
2013-08-20 12:30:00,86.1,86.1,29.94,East,93,7.0,7.0,100,0.00,,,0.00,Wunderground v.1.15,2013-08-20 16:30:00,
2013-08-20 12:40:00,86.1,86.1,29.94,ENE,76,7.0,7.0,100,0.00,,,0.00,Wunderground v.1.15,2013-08-20 16:40:00,
2013-08-20 12:45:00,85.9,85.9,29.93,East,95,7.0,7.0,100,0.00,,,0.00,Wunderground v.1.15,2013-08-20 16:45:00,
2013-08-20 12:55:00,85.7,85.7,29.93,ESE,110,6.0,10.0,100,0.00,,,0.00,Wunderground v.1.15,2013-08-20 16:55:00,
2013-08-20 13:00:00,85.9,85.9,29.93,ESE,102,7.0,7.0,100,0.00,,,0.00,Wunderground v.1.15,2013-08-20 17:00:00,
2013-08-20 13:10:00,85.7,85.7,29.93,ENE,73,7.0,7.0,100,0.00,,,0.00,Wunderground v.1.15,2013-08-20 17:10:00,
2013-08-20 13:15:00,85.7,85.7,29.93,ENE,69,7.0,7.0,100,0.00,,,0.00,Wunderground v.1.15,2013-08-20 17:15:00,
2013-08-20 13:25:00,85.5,85.5,29.93,ESE,110,7.0,7.0,100,0.00,,,0.00,Wunderground v.1.15,2013-08-20 17:25:00,
2013-08-20 13:35:00,85.7,85.7,29.93,NE,55,6.0,7.0,100,0.00,,,0.00,Wunderground v.1.15,2013-08-20 17:35:00,
2013-08-20 13:40:00,85.5,85.5,29.93,ENE,71,7.0,14.0,100,0.00,,,0.00,Wunderground v.1.15,2013-08-20 17:40:00,
2013-08-20 13:50:00,85.7,85.7,29.92,NNE,28,7.0,11.0,100,0.00,,,0.00,Wunderground v.1.15,2013-08-20 17:50:00,
2013-08-20 14:00:00,86.1,86.1,29.93,ENE,73,7.0,7.0,100,0.00,,,0.00,Wunderground v.1.15,2013-08-20 18:00:00,
2013-08-20 14:05:00,86.5,86.5,29.93,NE,55,7.0,7.0,100,0.00,,,0.00,Wunderground v.1.15,2013-08-20 18:05:00,
2013-08-20 14:15:00,87.0,87.0,29.92,East,83,8.0,8.0,100,0.00,,,0.00,Wunderground v.1.15,2013-08-20 18:15:00,
2013-08-20 14:25:00,87.2,87.2,29.92,East,83,6.0,11.0,100,0.00,,,0.00,Wunderground v.1.15,2013-08-20 18:25:00,
2013-08-20 14:30:00,87.0,87.0,29.92,East,93,6.0,6.0,100,0.00,,,0.00,Wunderground v.1.15,2013-08-20 18:30:00,
2013-08-20 14:40:00,86.3,86.3,29.92,East,90,6.0,6.0,100,0.00,,,0.00,Wunderground v.1.15,2013-08-20 18:40:00,
2013-08-20 14:50:00,85.9,85.9,29.92,East,90,5.0,8.0,100,0.00,,,0.00,Wunderground v.1.15,2013-08-20 18:50:00,
2013-08-20 15:00:00,85.5,85.5,29.91,East,86,6.0,10.0,100,0.00,,,0.00,Wunderground v.1.15,2013-08-20 19:00:00,
2013-08-20 15:05:00,85.5,85.5,29.91,East,92,6.0,11.0,100,0.00,,,0.00,Wunderground v.1.15,2013-08-20 19:05:00,
2013-08-20 15:15:00,85.3,85.3,29.91,ENE,76,6.0,10.0,100,0.00,,,0.00,Wunderground v.1.15,2013-08-20 19:15:00,
2013-08-20 15:25:00,84.9,84.9,29.91,ENE,64,6.0,6.0,100,0.00,,,0.00,Wunderground v.1.15,2013-08-20 19:25:00,
2013-08-20 15:30:00,84.9,84.9,29.91,ENE,72,7.0,10.0,100,0.00,,,0.00,Wunderground v.1.15,2013-08-20 19:30:00,
2013-08-20 15:40:00,85.1,85.1,29.91,ENE,68,6.0,6.0,100,0.00,,,0.00,Wunderground v.1.15,2013-08-20 19:40:00,
2013-08-20 15:50:00,85.1,85.1,29.91,NE,34,6.0,10.0,100,0.00,,,0.00,Wunderground v.1.15,2013-08-20 19:50:00,
2013-08-20 15:55:00,85.1,85.1,29.91,SE,130,5.0,10.0,100,0.00,,,0.00,Wunderground v.1.15,2013-08-20 19:55:00,
2013-08-20 16:05:00,85.1,85.1,29.91,East,83,5.0,7.0,100,0.00,,,0.00,Wunderground v.1.15,2013-08-20 20:05:00,
2013-08-20 16:10:00,85.1,85.1,29.91,East,89,5.0,5.0,100,0.00,,,0.00,Wunderground v.1.15,2013-08-20 20:10:00,
2013-08-20 16:20:00,85.1,85.1,29.90,East,83,4.0,4.0,100,0.00,,,0.00,Wunderground v.1.15,2013-08-20 20:20:00,
2013-08-20 16:25:00,85.1,85.1,29.90,ESE,121,3.0,4.0,100,0.00,,,0.00,Wunderground v.1.15,2013-08-20 20:25:00,
2013-08-20 16:35:00,84.9,84.9,29.91,ENE,76,4.0,4.0,100,0.00,,,0.00,Wunderground v.1.15,2013-08-20 20:35:00,
2013-08-20 16:45:00,85.1,85.1,29.90,ENE,76,2.0,6.0,100,0.00,,,0.00,Wunderground v.1.15,2013-08-20 20:45:00,
2013-08-20 16:50:00,85.1,85.1,29.90,ENE,78,3.0,6.0,100,0.00,,,0.00,Wunderground v.1.15,2013-08-20 20:50:00,
2013-08-20 17:00:00,85.1,85.1,29.90,ENE,71,3.0,3.0,100,0.00,,,0.00,Wunderground v.1.15,2013-08-20 21:00:00,
2013-08-20 17:05:00,85.1,85.1,29.90,ENE,68,3.0,3.0,100,0.00,,,0.00,Wunderground v.1.15,2013-08-20 21:05:00,
2013-08-20 17:15:00,85.1,85.1,29.89,NE,51,3.0,3.0,100,0.00,,,0.00,Wunderground v.1.15,2013-08-20 21:15:00,
2013-08-20 17:20:00,85.1,85.1,29.89,ENE,75,2.0,2.0,100,0.00,,,0.00,Wunderground v.1.15,2013-08-20 21:20:00,
2013-08-20 17:30:00,84.9,84.9,29.89,ENE,58,3.0,7.0,100,0.00,,,0.00,Wunderground v.1.15,2013-08-20 21:30:00,
2013-08-20 17:35:00,84.9,84.9,29.89,ENE,73,3.0,7.0,100,0.00,,,0.00,Wunderground v.1.15,2013-08-20 21:35:00,
2013-08-20 17:45:00,84.7,84.7,29.89,ENE,61,5.0,8.0,100,0.00,,,0.00,Wunderground v.1.15,2013-08-20 21:45:00,
2013-08-20 17:50:00,84.5,84.5,29.89,ENE,73,6.0,6.0,100,0.00,,,0.00,Wunderground v.1.15,2013-08-20 21:50:00,
2013-08-20 18:00:00,84.7,84.7,29.88,East,83,3.0,3.0,100,0.00,,,0.00,Wunderground v.1.15,2013-08-20 22:00:00,
2013-08-20 18:05:00,84.7,84.7,29.88,East,79,3.0,3.0,100,0.00,,,0.00,Wunderground v.1.15,2013-08-20 22:05:00,
2013-08-20 18:15:00,84.7,84.7,29.88,ENE,72,4.0,4.0,100,0.00,,,0.00,Wunderground v.1.15,2013-08-20 22:15:00,
2013-08-20 18:20:00,84.5,84.5,29.88,NE,54,5.0,10.0,100,0.00,,,0.00,Wunderground v.1.15,2013-08-20 22:20:00,
2013-08-20 18:30:00,84.5,84.5,29.88,ENE,66,4.0,4.0,100,0.00,,,0.00,Wunderground v.1.15,2013-08-20 22:30:00,
2013-08-20 18:40:00,84.3,84.3,29.88,ENE,58,7.0,8.0,100,0.00,,,0.00,Wunderground v.1.15,2013-08-20 22:40:00,
2013-08-20 18:45:00,84.3,84.3,29.88,ENE,64,7.0,12.0,100,0.00,,,0.00,Wunderground v.1.15,2013-08-20 22:45:00,
2013-08-20 18:55:00,84.5,84.5,29.88,NE,55,5.0,10.0,100,0.00,,,0.00,Wunderground v.1.15,2013-08-20 22:55:00,
2013-08-20 19:00:00,84.3,84.3,29.89,ENE,58,7.0,11.0,100,0.00,,,0.00,Wunderground v.1.15,2013-08-20 23:00:00,
2013-08-20 19:05:00,84.3,84.3,29.89,ENE,58,6.0,11.0,100,0.00,,,0.00,Wunderground v.1.15,2013-08-20 23:05:00,
2013-08-20 19:15:00,84.3,84.3,29.89,East,80,5.0,8.0,100,0.00,,,0.00,Wunderground v.1.15,2013-08-20 23:15:00,
2013-08-20 19:25:00,84.3,84.3,29.89,NE,56,6.0,7.0,100,0.00,,,0.00,Wunderground v.1.15,2013-08-20 23:25:00,
2013-08-20 19:30:00,84.3,84.3,29.89,ENE,68,5.0,5.0,100,0.00,,,0.00,Wunderground v.1.15,2013-08-20 23:30:00,
2013-08-20 19:40:00,84.3,84.3,29.89,East,93,6.0,6.0,100,0.00,,,0.00,Wunderground v.1.15,2013-08-20 23:40:00,
2013-08-20 19:45:00,84.3,84.3,29.89,ENE,64,6.0,11.0,100,0.00,,,0.00,Wunderground v.1.15,2013-08-20 23:45:00,
2013-08-20 19:55:00,84.1,84.1,29.89,ENE,61,7.0,9.0,100,0.00,,,0.00,Wunderground v.1.15,2013-08-20 23:55:00,
2013-08-20 20:05:00,84.1,84.1,29.90,ENE,71,7.0,8.0,100,0.00,,,0.00,Wunderground v.1.15,2013-08-21 00:05:00,
2013-08-20 20:10:00,84.1,84.1,29.90,ENE,64,7.0,10.0,100,0.00,,,0.00,Wunderground v.1.15,2013-08-21 00:10:00,
2013-08-20 20:20:00,84.1,84.1,29.90,NE,52,6.0,6.0,100,0.00,,,0.00,Wunderground v.1.15,2013-08-21 00:20:00,
2013-08-20 20:30:00,84.0,84.0,29.90,ENE,71,6.0,9.0,100,0.00,,,0.00,Wunderground v.1.15,2013-08-21 00:30:00,
2013-08-20 20:40:00,84.3,84.3,29.90,NE,54,6.0,6.0,100,0.00,,,0.00,Wunderground v.1.15,2013-08-21 00:40:00,
2013-08-20 20:45:00,84.1,84.1,29.91,ENE,78,6.0,10.0,100,0.00,,,0.00,Wunderground v.1.15,2013-08-21 00:45:00,
2013-08-20 20:55:00,84.1,84.1,29.91,ENE,76,7.0,11.0,100,0.00,,,0.00,Wunderground v.1.15,2013-08-21 00:55:00,
2013-08-20 21:00:00,84.1,84.1,29.91,ENE,75,7.0,8.0,100,0.00,,,0.00,Wunderground v.1.15,2013-08-21 01:00:00,
2013-08-20 21:10:00,84.1,84.1,29.91,ENE,61,7.0,7.0,100,0.00,,,0.00,Wunderground v.1.15,2013-08-21 01:10:00,
2013-08-20 21:20:00,84.1,84.1,29.91,East,83,6.0,6.0,100,0.00,,,0.00,Wunderground v.1.15,2013-08-21 01:20:00,
2013-08-20 21:25:00,84.1,84.1,29.91,ENE,58,5.0,6.0,100,0.00,,,0.00,Wunderground v.1.15,2013-08-21 01:25:00,
2013-08-20 21:30:00,84.1,84.1,29.92,NE,47,5.0,7.0,100,0.00,,,0.00,Wunderground v.1.15,2013-08-21 01:30:00,
2013-08-20 21:35:00,84.3,84.3,29.92,NE,48,7.0,7.0,100,0.00,,,0.00,Wunderground v.1.15,2013-08-21 01:35:00,
2013-08-20 21:45:00,84.1,84.1,29.92,East,80,7.0,10.0,100,0.00,,,0.00,Wunderground v.1.15,2013-08-21 01:45:00,
2013-08-20 21:50:00,84.3,84.3,29.92,ENE,78,8.0,8.0,100,0.00,,,0.00,Wunderground v.1.15,2013-08-21 01:50:00,
2013-08-20 22:00:00,83.2,83.2,29.92,ENE,76,8.0,8.0,100,0.00,,,0.00,Wunderground v.1.15,2013-08-21 02:00:00,
2013-08-20 22:10:00,82.8,82.8,29.92,ENE,69,7.0,10.0,100,0.00,,,0.00,Wunderground v.1.15,2013-08-21 02:10:00,
2013-08-20 22:15:00,82.6,82.6,29.93,ENE,65,7.0,10.0,100,0.00,,,0.00,Wunderground v.1.15,2013-08-21 02:15:00,
2013-08-20 22:25:00,83.4,83.4,29.93,ENE,66,6.0,7.0,100,0.00,,,0.00,Wunderground v.1.15,2013-08-21 02:25:00,
2013-08-20 22:35:00,83.6,83.6,29.93,ENE,72,6.0,6.0,100,0.00,,,0.00,Wunderground v.1.15,2013-08-21 02:35:00,
2013-08-20 22:40:00,83.4,83.4,29.93,East,80,4.0,5.0,100,0.00,,,0.00,Wunderground v.1.15,2013-08-21 02:40:00,
2013-08-20 22:50:00,83.2,83.2,29.93,ENE,72,6.0,8.0,100,0.00,,,0.00,Wunderground v.1.15,2013-08-21 02:50:00,
2013-08-20 22:55:00,83.4,83.4,29.93,NE,42,6.0,8.0,100,0.00,,,0.00,Wunderground v.1.15,2013-08-21 02:55:00,
2013-08-20 23:05:00,83.4,83.4,29.93,ENE,64,7.0,10.0,100,0.00,,,0.00,Wunderground v.1.15,2013-08-21 03:05:00,
2013-08-20 23:10:00,83.6,83.6,29.93,ENE,62,8.0,9.0,100,0.00,,,0.00,Wunderground v.1.15,2013-08-21 03:10:00,
2013-08-20 23:20:00,83.6,83.6,29.94,ENE,65,6.0,7.0,100,0.00,,,0.00,Wunderground v.1.15,2013-08-21 03:20:00,
2013-08-20 23:30:00,83.4,83.4,29.93,ENE,71,9.0,9.0,100,0.00,,,0.00,Wunderground v.1.15,2013-08-21 03:30:00,
2013-08-20 23:40:00,83.4,83.4,29.93,ENE,78,7.0,10.0,100,0.00,,,0.00,Wunderground v.1.15,2013-08-21 03:40:00,
2013-08-20 23:50:00,83.4,83.4,29.93,NE,55,9.0,9.0,100,0.00,,,0.00,Wunderground v.1.15,2013-08-21 03:50:00,